User: anonymous
Location: Caltech
(34.1382°N, 118.1253°W)
Time: 23:32:26
(UTC-07:00)
Language:

Cosmos 1025 Rocket - Orbit

View from above orbital plane
View from above orbital plane
View from above satellite
View from above satellite

Ground track
Ground track

The orbit data is extracted from the following two-line orbital elements,

1 10974U 78067B   14213.78691272  .00000331  00000-0  34570-4 0  3604
2 10974 082.4812 083.7070 0016959 218.5584 188.9880 14.86617180951476
Epoch (UTC): 01 August 2014 18:53:09
Eccentricity: 0.0016959
inclination: 82.4812°
perigee height: 596 km
apogee height: 620 km
right ascension of ascending node: 83.7070°
argument of perigee: 218.5584°
revolutions per day: 14.86617180
mean anomaly at epoch: 188.9880°
orbit number at epoch: 95147

The dashed part of the orbit path shows where the satellite is in the earth's shadow,  

DLR